| time (UTC) | temp F | wind direction | speed MPH | gust MPH | rain 1hr in | rain 24hr in | rain mn in | humidity % | barometer mb |
| 20260506173347 | 69 | 196 | 1.0 | 5.0 | 0.00 | 0.21 | 0.21 | 85 | 1006.3 |
| 20260506172830 | 69 | 196 | 1.0 | 5.0 | 0.00 | 0.21 | 0.21 | 84 | 1006.2 |
| 20260506172353 | 69 | 184 | 2.0 | 5.0 | 0.00 | 0.21 | 0.21 | 84 | 1006.2 |
| 20260506171836 | 68 | 206 | 3.0 | 5.0 | 0.00 | 0.21 | 0.21 | 84 | 1006.1 |
| 20260506171327 | 68 | 198 | 2.0 | 5.0 | 0.00 | 0.21 | 0.21 | 84 | 1006.1 |
| 20260506170831 | 68 | 198 | 1.0 | 5.0 | 0.00 | 0.21 | 0.21 | 84 | 1006.2 |
| 20260506170354 | 68 | 227 | 0.0 | 5.0 | 0.00 | 0.21 | 0.21 | 85 | 1006.2 |
| 20260506165836 | 68 | 194 | 2.0 | 7.0 | 0.00 | 0.21 | 0.21 | 85 | 1006.1 |
| 20260506165358 | 68 | 217 | 4.0 | 10.0 | 0.00 | 0.21 | 0.21 | 85 | 1006.1 |
| 20260506164841 | 68 | 198 | 6.0 | 10.0 | 0.00 | 0.21 | 0.21 | 85 | 1006.1 |
| 20260506164324 | 68 | 199 | 2.0 | 11.0 | 0.00 | 0.21 | 0.21 | 85 | 1006.2 |
| 20260506163828 | 67 | 223 | 4.0 | 11.0 | 0.00 | 0.21 | 0.21 | 85 | 1006.2 |
| 20260506163331 | 67 | 215 | 3.0 | 11.0 | 0.00 | 0.21 | 0.21 | 87 | 1006.3 |
| 20260506162856 | 67 | 213 | 4.0 | 13.0 | 0.00 | 0.21 | 0.21 | 87 | 1006.2 |
| 20260506162321 | 67 | 194 | 4.0 | 13.0 | 0.00 | 0.21 | 0.21 | 87 | 1006.2 |
| 20260506161828 | 67 | 200 | 3.0 | 10.0 | 0.00 | 0.21 | 0.21 | 88 | 1006.2 |
| 20260506161332 | 67 | 191 | 5.0 | 11.0 | 0.00 | 0.21 | 0.21 | 88 | 1006.2 |
| 20260506160839 | 67 | 197 | 3.0 | 7.0 | 0.00 | 0.21 | 0.21 | 89 | 1006.0 |
| 20260506160403 | 66 | 212 | 4.0 | 10.0 | 0.00 | 0.21 | 0.21 | 90 | 1006.0 |
| 20260506155825 | 66 | 178 | 5.0 | 11.0 | 0.00 | 0.21 | 0.21 | 90 | 1006.1 |
| 20260506155348 | 65 | 180 | 4.0 | 11.0 | 0.00 | 0.21 | 0.21 | 90 | 1006.2 |
| 20260506154831 | 65 | 193 | 5.0 | 11.0 | 0.00 | 0.21 | 0.21 | 90 | 1006.2 |
| 20260506154335 | 65 | 167 | 5.0 | 11.0 | 0.00 | 0.21 | 0.21 | 91 | 1006.2 |
| 20260506153842 | 65 | 192 | 4.0 | 10.0 | 0.00 | 0.21 | 0.21 | 91 | 1006.3 |
| 20260506153325 | 64 | 205 | 5.0 | 12.0 | 0.00 | 0.21 | 0.21 | 91 | 1006.3 |
| 20260506152829 | 64 | 178 | 5.0 | 12.0 | 0.00 | 0.21 | 0.21 | 91 | 1006.3 |
| 20260506152331 | 64 | 214 | 4.0 | 12.0 | 0.01 | 0.21 | 0.21 | 91 | 1006.1 |
| 20260506151835 | 65 | 206 | 5.0 | 11.0 | 0.02 | 0.21 | 0.21 | 91 | 1006.1 |
| 20260506151359 | 65 | 196 | 6.0 | 11.0 | 0.02 | 0.21 | 0.21 | 91 | 1006.1 |
| 20260506150841 | 65 | 188 | 3.0 | 13.0 | 0.03 | 0.21 | 0.21 | 92 | 1006.0 |
| 20260506150328 | 65 | 178 | 5.0 | 13.0 | 0.03 | 0.21 | 0.21 | 92 | 1006.2 |
| 20260506145832 | 65 | 246 | 5.0 | 12.0 | 0.04 | 0.21 | 0.21 | 93 | 1006.1 |
| 20260506145335 | 64 | 167 | 3.0 | 10.0 | 0.05 | 0.21 | 0.21 | 92 | 1006.1 |
| 20260506144839 | 64 | 196 | 4.0 | 10.0 | 0.06 | 0.21 | 0.21 | 92 | 1006.0 |
| 20260506144402 | 64 | 212 | 3.0 | 7.0 | 0.07 | 0.21 | 0.21 | 92 | 1006.0 |
| 20260506143824 | 64 | 200 | 2.0 | 5.0 | 0.07 | 0.21 | 0.21 | 92 | 1006.2 |
| 20260506143328 | 63 | 165 | 2.0 | 6.0 | 0.08 | 0.21 | 0.21 | 92 | 1006.2 |
| 20260506142831 | 63 | 194 | 3.0 | 6.0 | 0.09 | 0.21 | 0.21 | 92 | 1006.2 |
| 20260506142334 | 63 | 182 | 2.0 | 7.0 | 0.09 | 0.20 | 0.20 | 92 | 1006.2 |
| 20260506141901 | 63 | 175 | 3.0 | 11.0 | 0.09 | 0.20 | 0.20 | 91 | 1006.7 |
| 20260506141403 | 63 | 194 | 5.0 | 11.0 | 0.08 | 0.19 | 0.19 | 91 | 1006.7 |
| 20260506140826 | 63 | 180 | 3.0 | 10.0 | 0.07 | 0.18 | 0.18 | 91 | 1006.9 |
| 20260506140329 | 63 | 201 | 5.0 | 10.0 | 0.08 | 0.18 | 0.18 | 91 | 1007.1 |
| 20260506135856 | 63 | 219 | 6.0 | 11.0 | 0.07 | 0.17 | 0.17 | 91 | 1007.1 |
| 20260506135322 | 63 | 190 | 6.0 | 12.0 | 0.07 | 0.16 | 0.16 | 90 | 1007.2 |
| 20260506134829 | 63 | 165 | 6.0 | 16.0 | 0.07 | 0.15 | 0.15 | 90 | 1006.9 |
| 20260506134333 | 63 | 208 | 5.0 | 10.0 | 0.07 | 0.14 | 0.14 | 90 | 1006.8 |
| 20260506133836 | 63 | 191 | 4.0 | 10.0 | 0.07 | 0.14 | 0.14 | 90 | 1006.8 |
| 20260506133320 | 63 | 225 | 5.0 | 11.0 | 0.07 | 0.13 | 0.13 | 90 | 1006.7 |
| 20260506132827 | 63 | 190 | 5.0 | 11.0 | 0.06 | 0.12 | 0.12 | 90 | 1006.6 |
| 20260506132330 | 63 | 180 | 2.0 | 11.0 | 0.05 | 0.11 | 0.11 | 90 | 1006.5 |
| 20260506131834 | 63 | 211 | 4.0 | 11.0 | 0.05 | 0.11 | 0.11 | 90 | 1006.7 |
| 20260506131357 | 63 | 201 | 6.0 | 11.0 | 0.06 | 0.11 | 0.11 | 90 | 1006.9 |
| 20260506130840 | 63 | 187 | 6.0 | 11.0 | 0.06 | 0.11 | 0.11 | 90 | 1006.7 |
| 20260506130403 | 63 | 198 | 5.0 | 11.0 | 0.05 | 0.10 | 0.10 | 89 | 1006.6 |
| 20260506125846 | 63 | 154 | 5.0 | 10.0 | 0.05 | 0.10 | 0.10 | 89 | 1006.6 |
| 20260506125327 | 63 | 162 | 6.0 | 11.0 | 0.05 | 0.09 | 0.09 | 88 | 1006.7 |
| 20260506124831 | 63 | 194 | 6.0 | 11.0 | 0.04 | 0.08 | 0.08 | 88 | 1006.6 |
| 20260506124339 | 63 | 190 | 3.0 | 7.0 | 0.04 | 0.08 | 0.08 | 88 | 1006.6 |
| 20260506123826 | 63 | 187 | 3.0 | 8.0 | 0.03 | 0.07 | 0.07 | 88 | 1006.6 |
| 20260506123330 | 64 | 199 | 2.0 | 7.0 | 0.02 | 0.06 | 0.06 | 87 | 1006.5 |
| 20260506122834 | 64 | 208 | 3.0 | 9.0 | 0.03 | 0.06 | 0.06 | 87 | 1006.5 |
| 20260506122340 | 64 | 193 | 3.0 | 9.0 | 0.03 | 0.06 | 0.06 | 87 | 1006.4 |
| 20260506121824 | 64 | 195 | 3.0 | 5.0 | 0.03 | 0.06 | 0.06 | 86 | 1006.5 |
| 20260506121331 | 64 | 97 | 2.0 | 5.0 | 0.03 | 0.05 | 0.05 | 86 | 1006.5 |
| 20260506120838 | 64 | 185 | 3.0 | 5.0 | 0.03 | 0.05 | 0.05 | 88 | 1006.8 |
| 20260506120341 | 64 | 196 | 2.0 | 6.0 | 0.03 | 0.05 | 0.05 | 86 | 1006.8 |
| 20260506115825 | 63 | 185 | 3.0 | 6.0 | 0.03 | 0.05 | 0.05 | 86 | 1006.7 |
| 20260506115335 | 63 | 185 | 3.0 | 5.0 | 0.03 | 0.04 | 0.04 | 85 | 1006.8 |
| 20260506114839 | 63 | 174 | 2.0 | 5.0 | 0.03 | 0.04 | 0.04 | 85 | 1006.7 |
| 20260506114342 | 63 | 226 | 1.0 | 4.0 | 0.04 | 0.04 | 0.04 | 84 | 1006.9 |
| 20260506113826 | 63 | 170 | 2.0 | 4.0 | 0.04 | 0.04 | 0.04 | 84 | 1006.8 |
| 20260506113329 | 64 | 179 | 2.0 | 4.0 | 0.04 | 0.04 | 0.04 | 83 | 1006.8 |
| 20260506112853 | 64 | 163 | 1.0 | 4.0 | 0.03 | 0.03 | 0.03 | 83 | 1006.8 |
| 20260506112334 | 64 | 153 | 1.0 | 6.0 | 0.03 | 0.03 | 0.03 | 82 | 1006.9 |
| 20260506111839 | 64 | 192 | 3.0 | 6.0 | 0.03 | 0.03 | 0.03 | 81 | 1007.0 |
| 20260506111346 | 64 | 175 | 1.0 | 5.0 | 0.02 | 0.02 | 0.02 | 80 | 1006.9 |
| 20260506110828 | 64 | 191 | 2.0 | 7.0 | 0.02 | 0.02 | 0.02 | 79 | 1006.8 |
| 20260506110351 | 65 | 184 | 4.0 | 7.0 | 0.02 | 0.02 | 0.02 | 78 | 1006.8 |
| 20260506105838 | 65 | 181 | 3.0 | 10.0 | 0.02 | 0.02 | 0.02 | 77 | 1006.8 |
| 20260506105340 | 65 | 175 | 4.0 | 11.0 | 0.01 | 0.01 | 0.01 | 75 | 1006.5 |
| 20260506104828 | 66 | 180 | 4.0 | 12.0 | 0.01 | 0.01 | 0.01 | 73 | 1006.6 |
| 20260506104332 | 67 | 195 | 4.0 | 14.0 | 0.00 | 0.00 | 0.00 | 71 | 1006.6 |
| 20260506103859 | 67 | 223 | 5.0 | 14.0 | 0.00 | 0.00 | 0.00 | 68 | 1006.2 |
| 20260506103341 | 68 | 131 | 5.0 | 12.0 | 0.00 | 0.00 | 0.00 | 66 | 1006.0 |
| 20260506102825 | 68 | 132 | 5.0 | 10.0 | 0.00 | 0.00 | 0.00 | 66 | 1006.0 |
| 20260506102348 | 68 | 196 | 2.0 | 7.0 | 0.00 | 0.00 | 0.00 | 66 | 1006.0 |
| 20260506101834 | 68 | 198 | 4.0 | 6.0 | 0.00 | 0.00 | 0.00 | 65 | 1005.9 |
| 20260506101338 | 68 | 189 | 3.0 | 6.0 | 0.00 | 0.00 | 0.00 | 65 | 1005.8 |
| 20260506100841 | 68 | 187 | 3.0 | 6.0 | 0.00 | 0.00 | 0.00 | 63 | 1005.8 |
| 20260506100326 | 69 | 182 | 3.0 | 6.0 | 0.00 | 0.00 | 0.00 | 62 | 1005.7 |
| 20260506095832 | 69 | 179 | 2.0 | 9.0 | 0.00 | 0.00 | 0.00 | 61 | 1005.6 |
| 20260506095338 | 69 | 196 | 4.0 | 12.0 | 0.00 | 0.00 | 0.00 | 61 | 1005.6 |
| 20260506094901 | 69 | 184 | 4.0 | 12.0 | 0.00 | 0.00 | 0.00 | 61 | 1005.6 |
| 20260506094328 | 69 | 191 | 5.0 | 9.0 | 0.00 | 0.00 | 0.00 | 61 | 1005.6 |
| 20260506093831 | 69 | 188 | 5.0 | 9.0 | 0.00 | 0.00 | 0.00 | 61 | 1005.7 |
| 20260506093335 | 69 | 183 | 3.0 | 12.0 | 0.00 | 0.00 | 0.00 | 60 | 1005.7 |
| 20260506092859 | 69 | 200 | 5.0 | 12.0 | 0.00 | 0.00 | 0.00 | 60 | 1005.6 |
| 20260506092340 | 69 | 197 | 5.0 | 9.0 | 0.00 | 0.00 | 0.00 | 60 | 1005.7 |
| 20260506091904 | 69 | 168 | 3.0 | 9.0 | 0.00 | 0.00 | 0.00 | 60 | 1005.7 |
| 20260506091327 | 69 | 217 | 5.0 | 9.0 | 0.00 | 0.00 | 0.00 | 60 | 1005.8 |
| 20260506090830 | 69 | 213 | 4.0 | 7.0 | 0.00 | 0.00 | 0.00 | 60 | 1005.9 |
| 20260506090333 | 69 | 182 | 5.0 | 11.0 | 0.00 | 0.00 | 0.00 | 60 | 1005.8 |
| 20260506085857 | 69 | 227 | 4.0 | 11.0 | 0.00 | 0.00 | 0.00 | 59 | 1005.9 |
| 20260506085359 | 69 | 195 | 3.0 | 11.0 | 0.00 | 0.00 | 0.00 | 59 | 1005.9 |
| 20260506084841 | 70 | 187 | 5.0 | 10.0 | 0.00 | 0.00 | 0.00 | 59 | 1006.0 |
| 20260506084325 | 70 | 199 | 5.0 | 12.0 | 0.00 | 0.00 | 0.00 | 58 | 1006.1 |
| 20260506083828 | 70 | 186 | 6.0 | 11.0 | 0.00 | 0.00 | 0.00 | 58 | 1006.1 |
| 20260506083334 | 70 | 170 | 5.0 | 10.0 | 0.00 | 0.00 | 0.00 | 58 | 1006.1 |
| 20260506082842 | 70 | 196 | 4.0 | 9.0 | 0.00 | 0.00 | 0.00 | 57 | 1006.1 |
| 20260506082403 | 70 | 153 | 4.0 | 9.0 | 0.00 | 0.00 | 0.00 | 57 | 1006.2 |
| 20260506081845 | 70 | 194 | 5.0 | 9.0 | 0.00 | 0.00 | 0.00 | 57 | 1006.1 |
| 20260506081327 | 70 | 188 | 4.0 | 10.0 | 0.00 | 0.00 | 0.00 | 57 | 1006.2 |
| 20260506080831 | 70 | 200 | 6.0 | 10.0 | 0.00 | 0.00 | 0.00 | 57 | 1006.2 |
| 20260506080354 | 70 | 187 | 3.0 | 10.0 | 0.00 | 0.00 | 0.00 | 57 | 1006.2 |
| 20260506073335 | 70 | 189 | 2.0 | 6.0 | 0.00 | 0.00 | 0.00 | 55 | 1005.9 |
| 20260506072838 | 70 | 182 | 4.0 | 6.0 | 0.00 | 0.00 | 0.00 | 54 | 1006.0 |
| 20260506072341 | 70 | 209 | 1.0 | 6.0 | 0.00 | 0.00 | 0.00 | 55 | 1005.9 |
| 20260506071829 | 70 | 207 | 2.0 | 6.0 | 0.00 | 0.00 | 0.00 | 54 | 1006.1 |
| 20260506071332 | 70 | 196 | 1.0 | 3.0 | 0.00 | 0.00 | 0.00 | 54 | 1006.0 |
| 20260506070856 | 71 | 182 | 1.0 | 4.0 | 0.00 | 0.00 | 0.00 | 53 | 1006.1 |
| 20260506070340 | 71 | 150 | 1.0 | 4.0 | 0.00 | 0.00 | 0.00 | 52 | 1006.2 |
| 20260506062326 | 72 | 178 | 3.0 | 11.0 | 0.00 | 0.00 | 0.00 | 49 | 1006.7 |
| 20260506061829 | 72 | 196 | 4.0 | 11.0 | 0.00 | 0.00 | 0.00 | 49 | 1006.7 |
| 20260506061333 | 72 | 193 | 2.0 | 7.0 | 0.00 | 0.00 | 0.00 | 50 | 1006.6 |
| 20260506060840 | 72 | 190 | 3.0 | 8.0 | 0.00 | 0.00 | 0.00 | 50 | 1006.8 |
| 20260506060324 | 72 | 183 | 3.0 | 5.0 | 0.00 | 0.00 | 0.00 | 50 | 1006.9 |
| 20260506051340 | 71 | 187 | 2.0 | 4.0 | 0.00 | 0.00 | 0.00 | 48 | 1007.6 |
| 20260506050842 | 71 | 191 | 1.0 | 4.0 | 0.00 | 0.00 | 0.00 | 47 | 1007.5 |
| 20260506050331 | 71 | 191 | 1.0 | 4.0 | 0.00 | 0.00 | 0.00 | 47 | 1007.5 |
| 20260506044825 | 70 | 190 | 1.0 | 3.0 | 0.00 | 0.00 | 0.00 | 48 | 1007.6 |
| 20260506044328 | 70 | 190 | 1.0 | 3.0 | 0.00 | 0.00 | 0.00 | 48 | 1007.5 |
| 20260506043832 | 70 | 190 | 1.0 | 1.0 | 0.00 | 0.00 | 0.00 | 48 | 1007.5 |
| 20260506043356 | 70 | 190 | 0.0 | 3.0 | 0.00 | 0.00 | 0.00 | 48 | 1007.6 |
| 20260506042839 | 70 | 190 | 1.0 | 3.0 | 0.00 | 0.00 | 0.00 | 47 | 1007.6 |
| 20260506042341 | 71 | 190 | 1.0 | 3.0 | 0.00 | 0.00 | 0.00 | 46 | 1007.6 |
| 20260506041825 | 71 | 190 | 2.0 | 4.0 | 0.00 | 0.00 | 0.00 | 45 | 1007.6 |
| 20260506041329 | 72 | 190 | 2.0 | 4.0 | 0.00 | 0.00 | 0.00 | 44 | 1007.7 |
| 20260506040832 | 72 | 199 | 3.0 | 5.0 | 0.00 | 0.00 | 0.00 | 44 | 1007.6 |
| 20260506040340 | 72 | 191 | 3.0 | 5.0 | 0.00 | 0.00 | 0.00 | 44 | 1007.5 |
| 20260506035842 | 72 | 192 | 3.0 | 6.0 | 0.00 | 0.00 | 0.00 | 43 | 1007.5 |
| 20260506035325 | 73 | 187 | 3.0 | 6.0 | 0.00 | 0.00 | 0.00 | 43 | 1007.5 |
| 20260506034828 | 73 | 196 | 4.0 | 6.0 | 0.00 | 0.00 | 0.00 | 42 | 1007.5 |
| 20260506034333 | 73 | 181 | 3.0 | 7.0 | 0.00 | 0.00 | 0.00 | 42 | 1007.5 |
| 20260506033859 | 73 | 196 | 3.0 | 7.0 | 0.00 | 0.00 | 0.00 | 42 | 1007.5 |
| 20260506033342 | 73 | 198 | 3.0 | 9.0 | 0.00 | 0.00 | 0.00 | 42 | 1007.4 |
| 20260506032826 | 73 | 194 | 4.0 | 9.0 | 0.00 | 0.00 | 0.00 | 41 | 1007.5 |
| 20260506032329 | 73 | 208 | 3.0 | 7.0 | 0.00 | 0.00 | 0.00 | 41 | 1007.5 |
| 20260506031833 | 73 | 189 | 3.0 | 6.0 | 0.00 | 0.00 | 0.00 | 41 | 1007.5 |
| 20260506031336 | 73 | 188 | 4.0 | 9.0 | 0.00 | 0.00 | 0.00 | 41 | 1007.5 |
| 20260506030901 | 74 | 173 | 4.0 | 9.0 | 0.00 | 0.00 | 0.00 | 40 | 1007.4 |
| 20260506030330 | 74 | 203 | 4.0 | 7.0 | 0.00 | 0.00 | 0.00 | 40 | 1007.3 |
| 20260506025854 | 74 | 200 | 4.0 | 7.0 | 0.00 | 0.00 | 0.00 | 39 | 1007.3 |
| 20260506025340 | 74 | 196 | 4.0 | 6.0 | 0.00 | 0.00 | 0.00 | 40 | 1007.4 |
| 20260506024826 | 74 | 192 | 3.0 | 6.0 | 0.00 | 0.00 | 0.00 | 39 | 1007.4 |
| 20260506024330 | 74 | 167 | 3.0 | 6.0 | 0.00 | 0.00 | 0.00 | 39 | 1007.5 |
| 20260506023834 | 74 | 186 | 5.0 | 6.0 | 0.00 | 0.00 | 0.00 | 39 | 1007.5 |
| 20260506023342 | 74 | 186 | 3.0 | 7.0 | 0.00 | 0.00 | 0.00 | 39 | 1007.5 |
| 20260506022825 | 74 | 202 | 4.0 | 7.0 | 0.00 | 0.00 | 0.00 | 39 | 1007.5 |
| 20260506022328 | 74 | 197 | 4.0 | 6.0 | 0.00 | 0.00 | 0.00 | 39 | 1007.4 |
| 20260506021831 | 74 | 185 | 3.0 | 6.0 | 0.00 | 0.00 | 0.00 | 39 | 1007.4 |
| 20260506021336 | 74 | 200 | 4.0 | 6.0 | 0.00 | 0.00 | 0.00 | 38 | 1007.4 |
| 20260506020827 | 75 | 171 | 3.0 | 7.0 | 0.00 | 0.00 | 0.00 | 38 | 1007.3 |
| 20260506020331 | 75 | 194 | 3.0 | 7.0 | 0.00 | 0.00 | 0.00 | 38 | 1007.4 |
| 20260506015835 | 75 | 188 | 4.0 | 7.0 | 0.00 | 0.00 | 0.00 | 39 | 1007.4 |
| 20260506015358 | 75 | 184 | 3.0 | 6.0 | 0.00 | 0.00 | 0.00 | 39 | 1007.4 |
| 20260506014841 | 75 | 171 | 4.0 | 6.0 | 0.00 | 0.00 | 0.00 | 39 | 1007.4 |
| 20260506014325 | 75 | 193 | 3.0 | 6.0 | 0.00 | 0.00 | 0.00 | 39 | 1007.5 |
| 20260506013829 | 75 | 192 | 3.0 | 6.0 | 0.00 | 0.00 | 0.00 | 38 | 1007.5 |
| 20260506013336 | 75 | 188 | 4.0 | 8.0 | 0.00 | 0.00 | 0.00 | 38 | 1007.5 |
| 20260506012901 | 75 | 192 | 4.0 | 8.0 | 0.00 | 0.00 | 0.00 | 39 | 1007.5 |
| 20260506012342 | 76 | 182 | 5.0 | 7.0 | 0.00 | 0.00 | 0.00 | 38 | 1007.3 |
| 20260506011825 | 76 | 191 | 5.0 | 7.0 | 0.00 | 0.00 | 0.00 | 38 | 1007.2 |
| 20260506011329 | 75 | 166 | 4.0 | 6.0 | 0.00 | 0.00 | 0.00 | 38 | 1007.2 |
| 20260506010833 | 76 | 195 | 3.0 | 7.0 | 0.00 | 0.00 | 0.00 | 39 | 1007.2 |
| 20260506010340 | 76 | 205 | 4.0 | 7.0 | 0.00 | 0.00 | 0.00 | 39 | 1007.2 |
| 20260506005844 | 75 | 192 | 4.0 | 7.0 | 0.00 | 0.00 | 0.00 | 39 | 1007.0 |
| 20260506005326 | 75 | 184 | 3.0 | 6.0 | 0.00 | 0.00 | 0.00 | 41 | 1007.0 |
| 20260506004831 | 74 | 197 | 1.0 | 4.0 | 0.00 | 0.00 | 0.00 | 41 | 1007.0 |
| 20260506004335 | 75 | 197 | 2.0 | 4.0 | 0.00 | 0.00 | 0.00 | 41 | 1007.0 |
| 20260506003840 | 75 | 196 | 2.0 | 3.0 | 0.00 | 0.00 | 0.00 | 40 | 1007.0 |
| 20260506003324 | 77 | 192 | 0.0 | 9.0 | 0.00 | 0.00 | 0.00 | 38 | 1006.8 |
| 20260506002827 | 77 | 199 | 4.0 | 9.0 | 0.00 | 0.00 | 0.00 | 37 | 1006.6 |
| 20260506002329 | 78 | 202 | 3.0 | 11.0 | 0.00 | 0.00 | 0.00 | 37 | 1006.5 |
| 20260506001836 | 78 | 187 | 6.0 | 11.0 | 0.00 | 0.00 | 0.00 | 35 | 1006.4 |
| 20260506001324 | 78 | 188 | 5.0 | 10.0 | 0.00 | 0.00 | 0.00 | 35 | 1006.3 |
| 20260506000827 | 79 | 188 | 6.0 | 16.0 | 0.00 | 0.00 | 0.00 | 34 | 1006.3 |
| 20260506000332 | 79 | 169 | 4.0 | 16.0 | 0.00 | 0.00 | 0.00 | 35 | 1006.2 |
| 20260505235855 | 79 | 170 | 7.0 | 12.0 | 0.00 | 0.00 | 0.00 | 34 | 1006.3 |
| 20260505235340 | 79 | 196 | 5.0 | 11.0 | 0.00 | 0.00 | 0.00 | 34 | 1006.1 |
| 20260505234824 | 80 | 186 | 4.0 | 11.0 | 0.00 | 0.00 | 0.00 | 35 | 1006.2 |
| 20260505234328 | 80 | 212 | 5.0 | 10.0 | 0.00 | 0.00 | 0.00 | 34 | 1006.0 |
| 20260505233832 | 80 | 195 | 4.0 | 11.0 | 0.00 | 0.00 | 0.00 | 34 | 1006.0 |
| 20260505233340 | 81 | 196 | 7.0 | 15.0 | 0.00 | 0.00 | 0.00 | 34 | 1006.0 |
| 20260505232844 | 81 | 193 | 7.0 | 15.0 | 0.00 | 0.00 | 0.00 | 34 | 1006.1 |
| 20260505232347 | 81 | 240 | 6.0 | 15.0 | 0.00 | 0.00 | 0.00 | 34 | 1006.0 |
| 20260505231830 | 81 | 192 | 6.0 | 13.0 | 0.00 | 0.00 | 0.00 | 34 | 1006.0 |
| 20260505231334 | 81 | 198 | 6.0 | 15.0 | 0.00 | 0.00 | 0.00 | 35 | 1006.0 |
| 20260505230841 | 81 | 200 | 5.0 | 15.0 | 0.00 | 0.00 | 0.00 | 34 | 1005.9 |
| 20260505230325 | 81 | 188 | 7.0 | 15.0 | 0.00 | 0.00 | 0.00 | 34 | 1005.9 |
| 20260505225829 | 81 | 209 | 7.0 | 15.0 | 0.00 | 0.00 | 0.00 | 35 | 1005.9 |
| 20260505225336 | 81 | 167 | 6.0 | 17.0 | 0.00 | 0.00 | 0.00 | 35 | 1005.9 |
| 20260505224840 | 82 | 207 | 9.0 | 18.0 | 0.00 | 0.00 | 0.00 | 35 | 1005.9 |
| 20260505224343 | 82 | 170 | 7.0 | 18.0 | 0.00 | 0.00 | 0.00 | 36 | 1005.9 |
| 20260505223827 | 82 | 194 | 9.0 | 16.0 | 0.00 | 0.00 | 0.00 | 37 | 1006.0 |
| 20260505223351 | 82 | 172 | 7.0 | 12.0 | 0.00 | 0.00 | 0.00 | 36 | 1005.9 |
| 20260505222834 | 82 | 171 | 4.0 | 10.0 | 0.00 | 0.00 | 0.00 | 37 | 1005.9 |
| 20260505222336 | 82 | 185 | 4.0 | 10.0 | 0.00 | 0.00 | 0.00 | 36 | 1005.9 |
| 20260505221824 | 82 | 169 | 2.0 | 13.0 | 0.00 | 0.00 | 0.00 | 36 | 1005.9 |
| 20260505221347 | 82 | 206 | 6.0 | 13.0 | 0.00 | 0.00 | 0.00 | 34 | 1005.9 |
| 20260505220850 | 82 | 195 | 4.0 | 15.0 | 0.00 | 0.00 | 0.00 | 34 | 1005.8 |
| 20260505220337 | 82 | 194 | 7.0 | 15.0 | 0.00 | 0.00 | 0.00 | 31 | 1005.9 |
| 20260505215841 | 82 | 188 | 8.0 | 15.0 | 0.00 | 0.00 | 0.00 | 31 | 1005.9 |
| 20260505215404 | 82 | 209 | 7.0 | 15.0 | 0.00 | 0.00 | 0.00 | 30 | 1006.0 |
| 20260505214826 | 82 | 193 | 7.0 | 16.0 | 0.00 | 0.00 | 0.00 | 30 | 1006.0 |
| 20260505214353 | 82 | 202 | 6.0 | 22.0 | 0.00 | 0.00 | 0.00 | 31 | 1006.0 |
| 20260505213836 | 82 | 198 | 10.0 | 22.0 | 0.00 | 0.00 | 0.00 | 30 | 1006.0 |
| 20260505213401 | 82 | 167 | 7.0 | 14.0 | 0.00 | 0.00 | 0.00 | 31 | 1005.9 |
| 20260505212844 | 82 | 190 | 6.0 | 20.0 | 0.00 | 0.00 | 0.00 | 31 | 1005.9 |
| 20260505212326 | 83 | 232 | 13.0 | 23.0 | 0.00 | 0.00 | 0.00 | 30 | 1005.8 |
| 20260505211830 | 83 | 178 | 14.0 | 23.0 | 0.00 | 0.00 | 0.00 | 30 | 1005.9 |
| 20260505211353 | 84 | 190 | 10.0 | 25.0 | 0.00 | 0.00 | 0.00 | 31 | 1005.9 |
| 20260505210837 | 85 | 195 | 12.0 | 25.0 | 0.00 | 0.00 | 0.00 | 29 | 1005.7 |
| 20260505210401 | 85 | 211 | 10.0 | 22.0 | 0.00 | 0.00 | 0.00 | 31 | 1005.7 |
| 20260505205844 | 84 | 196 | 12.0 | 22.0 | 0.00 | 0.00 | 0.00 | 30 | 1005.8 |
| 20260505205327 | 84 | 203 | 12.0 | 19.0 | 0.00 | 0.00 | 0.00 | 31 | 1005.7 |
| 20260505204836 | 85 | 197 | 7.0 | 17.0 | 0.00 | 0.00 | 0.00 | 33 | 1005.7 |
| 20260505204340 | 85 | 186 | 6.0 | 26.0 | 0.00 | 0.00 | 0.00 | 33 | 1005.7 |
| 20260505203824 | 85 | 185 | 13.0 | 26.0 | 0.00 | 0.00 | 0.00 | 31 | 1005.7 |
| 20260505203329 | 85 | 198 | 7.0 | 17.0 | 0.00 | 0.00 | 0.00 | 33 | 1005.6 |
| 20260505202832 | 84 | 200 | 8.0 | 20.0 | 0.00 | 0.00 | 0.00 | 34 | 1005.8 |
| 20260505202336 | 85 | 193 | 6.0 | 20.0 | 0.00 | 0.00 | 0.00 | 33 | 1005.7 |
| 20260505201840 | 84 | 205 | 6.0 | 18.0 | 0.00 | 0.00 | 0.00 | 34 | 1005.9 |
| 20260505201324 | 84 | 198 | 6.0 | 20.0 | 0.00 | 0.00 | 0.00 | 35 | 1005.9 |
| 20260505200828 | 84 | 180 | 11.0 | 20.0 | 0.00 | 0.00 | 0.00 | 34 | 1006.0 |
| 20260505200332 | 85 | 230 | 10.0 | 20.0 | 0.00 | 0.00 | 0.00 | 33 | 1005.8 |
| 20260505195836 | 85 | 184 | 7.0 | 17.0 | 0.00 | 0.00 | 0.00 | 35 | 1006.0 |
| 20260505195323 | 84 | 209 | 11.0 | 18.0 | 0.00 | 0.00 | 0.00 | 32 | 1006.0 |
| 20260505194851 | 84 | 202 | 11.0 | 19.0 | 0.00 | 0.00 | 0.00 | 33 | 1006.1 |
| 20260505194335 | 85 | 186 | 5.0 | 20.0 | 0.00 | 0.00 | 0.00 | 38 | 1006.1 |
| 20260505193839 | 85 | 162 | 8.0 | 20.0 | 0.00 | 0.00 | 0.00 | 34 | 1006.1 |
| 20260505193324 | 85 | 198 | 9.0 | 17.0 | 0.00 | 0.00 | 0.00 | 33 | 1006.3 |
| 20260505192827 | 85 | 204 | 9.0 | 17.0 | 0.00 | 0.00 | 0.00 | 35 | 1006.4 |
| 20260505192334 | 84 | 184 | 8.0 | 18.0 | 0.00 | 0.00 | 0.00 | 37 | 1006.5 |
| 20260505191857 | 84 | 192 | 9.0 | 19.0 | 0.00 | 0.00 | 0.00 | 37 | 1006.5 |
| 20260505191340 | 84 | 209 | 11.0 | 19.0 | 0.00 | 0.00 | 0.00 | 36 | 1006.5 |
| 20260505190826 | 84 | 184 | 3.0 | 18.0 | 0.00 | 0.00 | 0.00 | 36 | 1006.7 |
| 20260505190334 | 84 | 203 | 10.0 | 18.0 | 0.00 | 0.00 | 0.00 | 37 | 1006.7 |
| 20260505185839 | 84 | 178 | 7.0 | 12.0 | 0.00 | 0.00 | 0.00 | 39 | 1006.7 |
| 20260505185346 | 84 | 181 | 6.0 | 15.0 | 0.00 | 0.00 | 0.00 | 38 | 1006.8 |
| 20260505184830 | 84 | 199 | 9.0 | 16.0 | 0.00 | 0.00 | 0.00 | 39 | 1006.8 |
| 20260505184334 | 84 | 225 | 9.0 | 18.0 | 0.00 | 0.00 | 0.00 | 39 | 1006.9 |
| 20260505183842 | 84 | 207 | 9.0 | 18.0 | 0.00 | 0.00 | 0.00 | 38 | 1007.0 |
| 20260505183326 | 84 | 160 | 4.0 | 12.0 | 0.00 | 0.00 | 0.00 | 39 | 1006.9 |
| 20260505182831 | 84 | 199 | 6.0 | 15.0 | 0.00 | 0.00 | 0.00 | 37 | 1007.0 |
| 20260505182335 | 84 | 194 | 4.0 | 16.0 | 0.00 | 0.00 | 0.00 | 41 | 1007.1 |
| 20260505181839 | 84 | 213 | 7.0 | 16.0 | 0.00 | 0.00 | 0.00 | 37 | 1007.3 |
| 20260505181403 | 84 | 182 | 6.0 | 15.0 | 0.00 | 0.00 | 0.00 | 40 | 1007.2 |
| 20260505180826 | 84 | 234 | 8.0 | 18.0 | 0.00 | 0.00 | 0.00 | 38 | 1007.3 |
| 20260505180330 | 84 | 212 | 8.0 | 18.0 | 0.00 | 0.00 | 0.00 | 39 | 1007.4 |
| 20260505175834 | 84 | 212 | 4.0 | 16.0 | 0.00 | 0.00 | 0.00 | 39 | 1007.3 |
| 20260505175324 | 84 | 168 | 8.0 | 16.0 | 0.00 | 0.00 | 0.00 | 38 | 1007.5 |
| 20260505174829 | 83 | 156 | 7.0 | 15.0 | 0.00 | 0.00 | 0.00 | 40 | 1007.5 |
| 20260505174332 | 83 | 168 | 9.0 | 13.0 | 0.00 | 0.00 | 0.00 | 41 | 1007.6 |
| 20260505173840 | 83 | 143 | 5.0 | 16.0 | 0.00 | 0.00 | 0.00 | 41 | 1007.6 |